User: anonymous   Login
Location: Newark
(57.0000°N, 24.5500°E)
Time: 12:27:10
(UTC+00:00)
Language:

LightSail 2 - Orbit

View from above orbital plane
View from above orbital plane
View from above satellite
View from above satellite

Ground track
Ground track

The orbit data is extracted from the following two-line orbital elements,

1 44420U 19036AC  20048.69042154  .00003519  00000-0  76139-3 0  9995
2 44420  24.0076 150.2138 0015083 279.5781  80.2993 14.54450962 32704
Epoch (UTC): 17 February 2020 16:34:12
Eccentricity: 0.0015083
inclination: 24.0076°
perigee height: 700 km
apogee height: 722 km
right ascension of ascending node: 150.2138°
argument of perigee: 279.5781°
revolutions per day: 14.54450962
mean anomaly at epoch: 80.2993°
orbit number at epoch: 3270

The dashed part of the orbit path shows where the satellite is in the earth's shadow,  

DLR